Content
SEND FEEDBACK

Daily
Averages
Monthly
Summary
Romania

TIMISOARA, ROMANIA


Home > Europe > Romania
Elevation: 102 meters     Latitude: 45 45N     Longitude: 021 14E

WEATHER
 
SELECT A DAY
Number of Records: 276,759;   Date Range: 7/1/96 - 9/3/14
 
SHARE

PRINT THIS DATA

[ ← Previous Day ]
WEATHER ALMANAC - 29 JANUARY, 2014
[ Next Day → ]
[ °F ]   °C
Weather ElementAverageHighLow
Temperature-3.1 °C-1 °C (12:30 am)-7 °C (10:30 pm)
Dewpoint-3.9 °C-2 °C (12:30 am)-8 °C (10:30 pm)
Humidity93.9 %100 % (1:00 am)93 % (12:30 am)
Barometer1008.8 hPa1016.3 hPa (10:30 pm)1003 hPa (12:30 am)
Wind Speed7.9 km/h16.7 km/h (6:30 am)
Weather ElementAverage
Visibility4.7 km
Wind DirectionSW (229.1 °)

Weather ElementTotal
Precipitation---
Heating Degree Days22.3 (Base 18.3)
Averaged from 47 records on 29 January, 2014
WEATHER CONDITIONS BREAKOUT
WIND DIRECTION BREAKOUT
WEATHER BY HOUR - 29 JANUARY, 2014
[ °F ]   °C
Local TimeTemperatureDewpointHumidityBarometerVisibilityWind DirectionWind SpeedGust SpeedPrecipitationEventsConditions
12:30 AM-1 °C-2 °C93 %1003 hPa6.9 kmEast (90°)7.4 km/h
1:00 AM-2 °C-2 °C100 %1003 hPa8 kmEast (90°)11.1 km/h
1:30 AM-2 °C-3 °C93 %1003 hPa9 kmSouth (180°)5.6 km/h
2:00 AM-2 °C-3 °C93 %1004.1 hPa10 kmSouth (190°)1.9 km/hPartly Cloudy
2:30 AM-2 °C-3 °C93 %1003 hPa10 kmWNW (300°)3.7 km/hScattered Clouds
3:00 AM-2 °C-3 °C93 %1003 hPa10 kmWNW (300°)5.6 km/hPartly Cloudy
3:30 AM-2 °C-3 °C93 %1004.1 hPa8 kmNW (320°)5.6 km/h
4:00 AM-2 °C-3 °C93 %1003 hPa6.9 kmWSW (240°)3.7 km/hPartly Cloudy
4:30 AM-2 °C-3 °C93 %1004.1 hPa4 kmWSW (250°)9.3 km/hSnowLight Snow
5:00 AM-2 °C-3 °C93 %1004.1 hPa3.1 kmWest (260°)11.1 km/hSnowSnow
5:30 AM-2 °C-3 °C93 %1004.1 hPa1.9 kmWest (260°)11.1 km/hSnowSnow
6:00 AM-2 °C-3 °C93 %1004.1 hPa1.1 kmWest (260°)13 km/hSnowHeavy Snow
6:30 AM-3 °C-3 °C100 %1005.1 hPa3.1 kmWest (260°)16.7 km/hSnowSnow
7:00 AM-3 °C-4 °C93 %1005.1 hPa2.6 kmWest (280°)16.7 km/hSnowSnow
7:30 AM-3 °C-4 °C93 %1005.1 hPa1.4 kmWest (280°)13 km/hSnowSnow
8:00 AM-3 °C-4 °C93 %1006.1 hPa1.4 kmWest (280°)11.1 km/hSnowLight Snow
8:30 AM-3 °C-4 °C93 %1006.1 hPa1.4 kmWest (280°)7.4 km/hSnowLight Snow
9:00 AM-3 °C-4 °C93 %1007.1 hPa1.8 kmWNW (290°)7.4 km/hSnowLight Snow
9:30 AM-3 °C-4 °C93 %1007.1 hPa1.9 kmWNW (290°)9.3 km/hSnowLight Snow
10:00 AM-3 °C-3 °C100 %1007.1 hPa1.9 kmWNW (300°)9.3 km/hSnowLight Snow
10:30 AM-3 °C-3 °C100 %1008.1 hPa1.8 kmWNW (300°)7.4 km/hSnowLight Snow
11:00 AM-2 °C-3 °C93 %1008.1 hPa1.9 kmWNW (300°)7.4 km/hSnowLight Snow
11:30 AM-2 °C-3 °C93 %1009.1 hPa1.9 kmWNW (300°)11.1 km/hSnowLight Snow
12:00 PM-2 °C-3 °C93 %1009.1 hPa1.9 kmNW (310°)9.3 km/hSnowLight Snow
12:30 PM-2 °C-3 °C93 %1009.1 hPa1.9 kmNW (320°)9.3 km/hSnowLight Snow
1:00 PM-2 °C-3 °C93 %1009.1 hPa1.9 kmNNW (330°)9.3 km/hSnowLight Snow
1:30 PM-2 °C-3 °C93 %1009.1 hPa5 kmNW (320°)7.4 km/hSnowLight Snow
2:00 PM-2 °C-3 °C93 %1010.2 hPa6.9 kmNNW (340°)5.6 km/hMostly Cloudy
2:30 PM-2 °C-3 °C93 %1010.2 hPa8 kmNNW (340°)5.6 km/hMostly Cloudy
3:00 PM-2 °C-3 °C93 %1010.2 hPa6 kmNW (320°)7.4 km/hOvercast
3:30 PM-2 °C-3 °C93 %1010.2 hPa8 kmNW (320°)9.3 km/hOvercast
4:00 PM-2 °C-3 °C93 %1011.2 hPa8 kmNW (320°)7.4 km/hOvercast
4:30 PM-2 °C-3 °C93 %1011.2 hPa8 kmNW (310°)9.3 km/hOvercast
5:00 PM-2 °C-3 °C93 %1012.2 hPa8 kmNW (310°)9.3 km/hOvercast
5:30 PM-3 °C-3 °C100 %1012.2 hPa6.9 kmNW (320°)7.4 km/hMostly Cloudy
6:00 PM-4 °C-4 °C100 %1012.2 hPa5 kmWNW (300°)7.4 km/hMostly Cloudy
6:30 PM-4 °C-5 °C93 %1012.2 hPa5 kmNorth (350°)3.7 km/hMostly Cloudy
7:00 PM-4 °C-5 °C93 %1013.2 hPa6 kmNNE (30°)5.6 km/hScattered Clouds
7:30 PM-5 °C-6 °C93 %1013.2 hPa5 kmNNE (30°)5.6 km/hPartly Cloudy
8:00 PM-5 °C-6 °C93 %1013.2 hPa5 kmNNE (30°)7.4 km/hScattered Clouds
8:30 PM-5 °C-6 °C93 %1014.2 hPa4.5 kmNNE (30°)9.3 km/hPartly Cloudy
9:00 PM-6 °C-7 °C93 %1014.2 hPa4 kmNNE (20°)5.6 km/hPartly Cloudy
9:30 PM-6 °C-7 °C93 %1015.2 hPa4 kmNorth (10°)7.4 km/hMist
10:00 PM-6 °C-7 °C93 %1015.2 hPa2.6 kmNNE (20°)7.4 km/hMist
10:30 PM-7 °C-8 °C93 %1016.3 hPa2.6 kmNE (40°)3.7 km/hMist
11:00 PM-7 °C-8 °C93 %1016.3 hPa3.1 kmNE (50°)3.7 km/hMist
11:30 PM-5 °C-6 °C93 %1016.3 hPa2.6 kmEast (100°)3.7 km/hSnowLight Snow
Hourly data recorded from LRTR, located 0 kilometers away from Timisoara, Romania







STORIES FROM OUR PARTNERS